Regional Weather Roundup
Issued by NWS Northern Indiana

Home | Current Version | Previous Version | Graphics & Text | Print | Product List | Glossary On
Versions: 1 2 3 4 5 6 7 8 9 10 11 12 13 14 15 16 17 18 19 20 21 22 23 24 25 26 27 28 29 30 31 32 33 34 35 36 37 38 39 40 41 42 43 44 45 46 47 48 49 50
000
ASUS43 KIWX 300700
RWRIWX

KIWX WEATHER ROUNDUP
NATIONAL WEATHER SERVICE NORTHERN INDIANA
300 AM EDT SAT JUL 30 2016

NOTE: "FAIR" INDICATES FEW OR NO CLOUDS BELOW 12,000 FEET WITH NO
SIGNIFICANT WEATHER AND/OR OBSTRUCTIONS TO VISIBILITY.

* THESE STATIONS ARE NOT UNDER NWS QUALITY CONTROL. THEY ALSO MAY NOT
  REPORT WEATHER SUCH AS PRECIPITATION OR FOG.

INZ001>027-300800-
NORTHERN INDIANA

CITY           SKY/WX    TMP DP  RH WIND       PRES   REMARKS
KNOX*          MOCLDY    64  63  94 CALM      29.93S VSB 1/4
SOUTH BEND     MOCLDY    67  65  93 E3        29.94F
GOSHEN         MOCLDY    68  64  87 CALM      29.94F
MONTICELLO*    CLOUDY    67  64  88 CALM      29.92S
ANGOLA*        PTCLDY    66  57  72 E6        29.95S
FORT WAYNE     CLOUDY    71  68  90 NE5       29.93F FOG
PERU/GRISSOM   FOG       68  68 100 NE6       29.91F VSB 1/2

$$
INZ028>050-300800-
CENTRAL INDIANA

CITY           SKY/WX    TMP DP  RH WIND       PRES   REMARKS
LAFAYETTE      CLEAR     68  68 100 E5        29.90F
KOKOMO*        CLOUDY    68  64  88 NE5       29.92F VSB 1/4
MUNCIE*        FOG       69  67  93 E3        29.92S VSB 1/4
INDIANAPOLIS   CLOUDY    70  67  90 SW7       29.91F

$$
MIZ043>046-050>051-056>058-064>065-071>073-077>080-300800-
SOUTHWEST LOWER MICHIGAN

CITY           SKY/WX    TMP DP  RH WIND       PRES   REMARKS
BATTLE CREEK   LGT RAIN  63  60  90 E6        29.98S
BENTON HARBOR  CLOUDY    67  62  84 E6        29.93F
COLDWATER*     CLOUDY    66  64  95 NE7       29.96S
HILLSDALE*     CLOUDY    64  61  88 CALM      29.96S
HOLLAND        CLOUDY    65  58  78 E10       29.98S
GRAND RAPIDS   CLOUDY    63  57  81 NE15      29.99F
KALAMAZOO      CLOUDY    66  59  78 NE6       29.97S
STURGIS*       CLOUDY    67  66  97 E3        29.94F FOG
THREE RIVERS*  CLOUDY    69  66  90 NE7       29.96S

$$
OHZ001>008-015>018-024>025-300800-
NORTHWEST OHIO

CITY           SKY/WX    TMP DP  RH WIND       PRES   REMARKS
DEFIANCE       PTCLDY    69  64  84 NE7       29.94S
FINDLAY        CLOUDY    72  67  84 NE6       29.92F HAZE
TOLEDO EXPRESS CLOUDY    68  63  84 NE8       29.93F
TOLEDO METCALF CLOUDY    72  69  90 NE5       29.93F
LIMA           CLOUDY    69  69 100 NE5       29.92

$$
AND FOR LAKE MICHIGAN COASTAL AND OPEN LAKE BUOY OBSERVATIONS

STATION/POSITION TEMP    WIND        PRES    VSBY  WAVE
                 AIR SEA DIR/SP/G                  HT/PER
                 (F)     (DEG/KT/KT) (MB)    (MI)  (FT/S)
CALUMET HARBOR    73      50/  7/  9 1013.2F
MICHIGAN CITY     69      60/  4/  5   N/A
BURNS HARBOR      70      80/  7/ 10 1013.9F
SAINT JOSEPH      67      CALM  /  6 1013.5F
SOUTH LAKE BUOY   68 74   70/ 17/ 21 1014.1          3/ 4
4 MI NW BRIDGMAN  70 73   80/ 12/ 14 1013.4F         2
MICHIGAN CITY     71 76   90/ 10/ 14   N/A           3/ 4

$$
&&




USA.gov is the U.S. government's official web portal to all federal, state and local government web resources and services.